www.pogodaiklimat.ru

Погода и климат >> Архив погоды >> Монголия >> Мурэн


ПОГОДА в Мурэне

  • Прогноз погоды в Мурэне
  • Монитор погоды в Мурэне

АРХИВ ПОГОДЫ в Мурэне

Время (UTC), дата Ветер
(напр.,м/с)
 
Видим.   Явления Облачность Т
(С)
Тd
(С)
f
(%)
Тe
(С)
Тes
(С)
Комфортность P
(гПа)
Po
(гПа)
Тmin
(С)
Tmax
(С)
R
(мм)
R24
(мм)
S
(см)
15 18.06 В 3 н/о ясно +18.1 +6.6 47 +18 +18 1010.4 868.8
18 18.06 штиль 0 н/о ясно +15.0 +7.8 62 +15 +15 1011.6 868.4
21 18.06 штиль 0 50 км ясно +12.6 +9.2 80 +12 +12 1012.8 868.3
00 19.06 ЮЗ 2 50 км 3/3 1000 м
[Cu med, cong]
+15.2 +10.4 73 +15 +18 1012.2 869.0 +12.4
03 19.06 З 2 50 км 3/0
[Ac lent Cc]
+21.2 +12.3 57 +23 +34 комфорт 1008.1 868.2
06 19.06 С 1 50 км 3/3 1000 м
[Cb cap]
+26.1 +12.6 43 +28 +42 жарко 1003.5 866.3
09 19.06 ЮВ 5 50 км 8/3 1000 м
[Cb calv Cs]
+27.3 +11.3 37 +28 +31 жарко 1001.7 865.3
12 19.06 ЮВ 2 50 км 9/6 1000 м
[Cb cap Ac As]
+25.7 +12.2 43 +27 +27 жарко 1003.2 865.9 +28.5
15 19.06 Ю 2 н/о 9/0
[As trans]
+21.1 +10.6 51 +23 +23 комфорт 1007.3 867.4
18 19.06 В 3 н/о 9/0
[Ac lent Cs]
+18.7 +9.8 56 +19 +19 1008.4 867.4
21 19.06 В 2 50 км 10/0
[As trans]
+16.3 +9.0 62 +16 +16 1010.1 867.7
00 20.06 штиль 0 50 км 8/0
[Ac lent Cs]
+17.7 +9.8 60 +18 +22 1010.5 868.7 +14.9
03 20.06 ЮЗ 2 50 км 3/0
[Ac lent Cc]
+22.0 +9.8 46 +24 +36 комфорт 1008.0 868.5
06 20.06 ЮВ 2 50 км 1/1 1000 м
[Cu med, cong]
+28.6 +8.8 29 +28 +44 жарко 1003.5 867.4
09 20.06 ЮЗ 1 50 км 8/3 1000 м
[Cb calv Cc]
+30.7 +6.6 22 +29 +36 жарко 1001.2 866.3
12 20.06 ЮВ 3 50 км 8/3 1000 м
[Cb calv Cs]
+28.6 +7.8 27 +28 +28 жарко 1002.6 866.6 +31.1
15 20.06 В 4 н/о 3/0
[Cs]
+22.8 +10.2 45 +25 +25 комфорт 1007.0 867.9
18 20.06 В 6 н/о ясно +20.9 +9.2 47 +22 +22 комфорт 1008.9 868.7
21 20.06 В 4 50 км 3/0
[Ci fib]
+19.3 +8.9 51 +20 +20 1009.4 868.4
00 21.06 ЮЗ 2 50 км 3/0
[Ci fib]
+19.0 +11.3 61 +20 +24 1010.6 869.4 +17.3
03 21.06 ЮЗ 2 50 км 5/3 1000 м
[Cu med, cong Cs]
+23.7 +11.4 46 +25 +34 комфорт 1008.1 869.3
06 21.06 З 2 50 км 9/4 1000 м
[Cb calv Cs]
+26.8 +12.4 41 +28 +37 жарко 1004.7 867.6
09 21.06 Ю 4 50 км 9/5 1000 м
[Cb calv Cs]
+28.1 +11.6 36 +29 +32 жарко 1002.4 866.3
12 21.06 ЮВ 1
{14}
4000 м слаб. ливневой дождь, в посл. час гроза 10/10 600 м
[Cb cap]
+15.5 +14.5 94 +16 +16 1014.5 871.1 +28.7 11
15 21.06 СЗ 1 н/о слаб. ливневой дождь 10/10 600 м
[Cb calv]
+15.8 +14.3 91 +16 +16 1014.1 870.9
18 21.06 З 1 н/о {ливн. осадки} 8/5 1000 м
[Cb calv Ac lent]
+16.2 +14.7 91 +17 +17 1013.4 870.5
21 21.06 штиль 0 50 км 9/5 1000 м
[Cb calv Ac cast Cs]
+15.1 +13.8 92 +15 +15 1013.2 869.9
00 22.06 СЗ 1 50 км 9/4 1000 м
[Cb calv Ac lent Ci]
+16.9 +14.2 84 +18 +19 1012.3 869.9 +14.8 1
03 22.06 ЮЗ 2 50 км {ливн. осадки} 9/4 1000 м
[Cb calv Ac trans Cc]
+18.0 +13.9 77 +19 +23 1011.4 869.6
06 22.06 В 2 50 км {ливн. осадки} 9/3 1000 м
[Cb calv Cs]
+23.1 +14.9 60 +27 +37 душно 1006.1 867.3
09 22.06 З 3 10 км слаб. ливневой дождь 9/6 600 м
[Cb calv As trans]
+20.9 +16.1 74 +25 +26 комфорт 1006.6 866.8
12 22.06 штиль 0 10 км слаб. ливневой дождь 10/5 600 м
[Cb calv As trans]
+19.0 +15.5 80 +20 +20 1007.5 866.7 +24.2 1
15 22.06 В 2 н/о {ливн. осадки} 8/4 1000 м
[Cb calv Ac trans]
+16.9 +13.0 78 +17 +17 1008.9 867.0
18 22.06 ЮВ 2 н/о {ливн. осадки} 6/0
[Ac lent Cs]
+14.8 +12.8 88 +14 +14 1010.1 867.1
21 22.06 В 2 50 км 8/4 1000 м
[Sc Cs]
+12.8 +11.8 94 +12 +12 1011.4 867.2
00 23.06 штиль 0 50 км 5/1 1000 м
[Cu hum Ci]
+15.1 +12.8 86 +15 +19 1011.1 868.0 +12.6 0.1
03 23.06 ЮЗ 2 50 км 8/1 1000 м
[Cu hum Cs]
+19.1 +13.1 68 +21 +31 комфорт 1008.7 867.8
06 23.06 ЮЗ 2 50 км 4/3 1000 м
[Cu med, cong Cs]
+23.8 +11.2 45 +25 +37 комфорт 1004.7 866.4
09 23.06 ЮЗ 2 50 км 9/1 1000 м
[Cu hum Cs]
+25.4 +5.6 28 +25 +32 комфорт 1002.6 865.3
12 23.06 Ю 1 50 км 9/4 1000 м
[Cb calv As trans]
+24.3 +6.6 32 +24 +25 комфорт 1003.0 865.1 +26.5
15 23.06 Ю 1 н/о 10/0
[As trans]
+21.0 +9.6 48 +24 +24 комфорт 1005.0 865.5
18 23.06 В 2 н/о 10/0
[As op]
+18.2 +12.6 70 +19 +19 1006.2 865.2
21 23.06 Ю 2 50 км 9/3 1000 м
[Sc Cs]
+16.4 +12.6 78 +17 +17 1006.3 864.5
00 24.06 штиль 0 50 км 8/0
[Cs]
+17.9 +11.9 68 +18 +22 1005.3 864.3 +15.5
03 24.06 Ю 2 50 км 8/1 1000 м
[Cu hum Ac trans Cs]
+23.6 +12.0 48 +25 +33 комфорт 1000.9 863.1
06 24.06 З 1 50 км 10/4 1000 м
[Cb calv As trans]
+24.6 +12.5 47 +26 +31 жарко 999.0 861.8
09 24.06 Ю 1
{12}
50 км {гроза, ливн. осадки} 9/9 1000 м
[Cb calv]
+20.0 +13.0 64 +23 +24 комфорт 1001.1 861.6
12 24.06 З 3 20 км осадки на расстоянии {гроза, ливн. осадки} туман 10/10 600 м
[Cb cap]
+17.4 +12.5 73 +17 +17 1002.5 861.7 +24.9 2
15 24.06 З 4 н/о в посл. час ливневой дождь 8/3 1000 м
[Cb calv Ac cast]
+16.3 +9.5 64 +16 +16 1003.2 861.8
18 24.06 З 2 н/о {ливн. осадки} ясно +13.7 +7.0 64 +13 +13 1004.7 861.9
21 24.06 З 4 50 км 8/4 1000 м
[Sc Ac cast]
+12.7 +5.8 63 +11 +11 1006.2 862.8
00 25.06 З 5 50 км 8/4 1000 м
[Cb calv Ac lent]
+13.1 +6.7 65 +11 +12 1006.0 862.7 +11.5 0.0
03 25.06 З 6
{14}
20 км слаб. ливневой дождь 9/9 600 м
[Cb calv]
+11.9 +6.0 67 +9 +10 1007.8 863.7
06 25.06 З 8-14
{14}
50 км {ливн. осадки} 5/5 1000 м
[Cb calv]
+18.0 +3.8 39 +17 +19 1002.8 862.2
09 25.06 З 6
{14}
50 км 4/4 1000 м
[Cb calv]
+18.6 +1.6 32 +18 +20 1002.3 862.0

 

Местоположение метеостанции Мурэн (Монголия): широта 49.63 долгота 100.16 высота над уровнем моря 1283 м.

В архиве по умолчанию представлена погода в Мурэне за последнюю неделю. Архивные данные за месяц целиком и за предыдущие месяцы, начиная с января 2011 года, Вы можете получить, выбрав интересующий диапазон дат из раскрывающегося списка и нажав кнопку "Ввод!".


*Определитесь, кто Вы:
робот инопланетянин человек

Внимание! Время в таблицах - всемирное. Для получения местного времени необходимо прибавить поправку, которая равна 8 ч.

Смотрите также архив погоды в соседних городах и на ближайших метеорологических станциях:

Погода в Хатгале (Монголия) (89 км)
Погода ву Тариалане (Монголия) (133 км)
Погода в Эрдэнэмандале (Монголия) (151 км)
Погода в Рэнчинлхумбэ (Монголия) (169 км)
Погода в Тосонцэнгэле (Монголия) (174 км)
Погода в Тариате (Монголия) (178 км)
Погода в Хутаге (Монголия) (186 км)
Погода в Кунгур-Туке (Алтай, Россия) (217 км)
Погода в Санаге (Бурятия, Россия) (218 км)
Погода в Монды (Бурятия, Россия) (234 км)

Пояснения к столбцам:

Ветер - указаны скорость ветра в м/с - средняя за 10 мин, порывы в срок и между сроками (в фигурных скобках) и направление, откуда дует ветер: С - северный, СВ - северо-восточный, В - восточный, ЮВ - юго-восточный, Ю - южный, ЮЗ - юго-западный, З - западный, СЗ - северо-западный.
Видимость - горизонтальная дальность видимости в метрах или километрах. При видимости от 1 до 10 км при отсутствии осадков обычно наблюдается дымка, при ухудшении видимости до 1 км и менее - туман. В сухую погоду видимость может ухудшаться дымом, пылью или мглою.
Явления - указаны атмосферные явления, наблюдавшиеся в срок или в последний час перед сроком; фигурными скобками обозначены явления, наблюдавшиеся между сроками (за 1-3 часа до срока); квадратными скобками обозначены град или гололедные отложения с указанием их диаметра в мм.
Облачность - указаны через наклонную черту общая и нижняя облачность в баллах и высота нижней границы облаков в метрах; квадратными скобками обозначены формы облаков: Ci - перистые, Cs - перисто-слоистые, Cc - перисто-кучевые, Ac - высококучевые, As - высокослоистые, Sc - слоисто-кучевые, Ns - слоисто-дождевые, Cu - кучевые, Cb - кучево-дождевые. Подробнее классификацию облаков см. в Атласе облаков (PDF).
T - Температура воздуха - температура, измеренная на высоте 2 м над землей.
Td - Температура точки росы - температура, при понижении до которой содержащийся в воздухе водяной пар достигнет насыщения.
f - Относительная влажность воздуха - влажноcть воздуха, измеренная на высоте 2 м над землей.
Te - Эффективная температура - температура, которую ощущает одетый по сезону человек в тени. Характеристика душности погоды. При расчете учитывается влияние влажности воздуха и скорости ветра на теплоощущения человека.
Tes - Эффективная температура на солнце - температура, которую ощущает человек, с поправкой на солнечный нагрев. Характеристика знойности погоды. Зависит от высоты солнца над горизонтом, облачности и скорости ветра. Ночью, в пасмурную погоду, а также при ветре 12 м/с и более поправка равна нулю.
P - Атмосферное давление - приведенное к уровню моря атмосферное давление.
Po - Атмосферное давление - измеренное на уровне метеостанции атмосферное давление.
Tmin - Минимальная температура - минимум температуры воздуха на высоте 2 м над землей.
Tmax - Максимальная температура - максимум температуры воздуха на высоте 2 м над землей.
R - Количество осадков - Количество выпавших осадков за период времени, мм. При наведении курсора мыши на число - период времени, за который выпало указанное количество осадков.
R24 - Количество осадков - Количество выпавших осадков за 24 часа, мм.
S - Снежный покров - Высота снежного покрова, см. При наведении курсора мыши на число - состояние снежного покрова и степень покрытия местности в баллах.